SCP
0 0 0 0 0 0 0 0 0 0 0 0 0 0 0 0 0 0 0 0 0 0 0 0 0 0 0 0 0 0 0 0 0 0 0 0 0 0 0 0 0 0 0
0 0 0 0 0 0 0 0 0 0 0 0 0 0 0 0 0 0 0 0 0 0 0 0 0 0 0 0 0 0 0 0 0 0 0 0 0 0 0 0 0 0 0
0 0 0 0 0 0 0 0 0 0 0 0 0 0 0 0 0 0 0 0 0 0 0 0 0 0 0 0 0 0 0 0 0 0 0 0 0 0 0 0 0 0 0
0 0 0 0 0 0 0 0 0 0 0 0 0 0 0 0 0 0 0 0 0 0 0 0 0 0 0 0 0 0 0 0 0 0 0 0 0 0 0 0 0 0 0
0 0 0 0 0 0 0 0 0 0 0 0 0 0 0 0 0 0 0 0 0 0 0 0 0 0 0 0 0 0 0 0 0 0 0 0 0 0 0 0 0 0 0
0 0 0 0 0 0 0 0 0 0 0 0 0 0 0 0 0 0 0 0 0 0 0 0 0 0 0 0 0 0 0 0 0 0 0 0 0 0 0 0 0 0 0
0 0 0 0 0 0 0 0 0 0 0 0 0 0 0 0 0 0 0 0 0 0 0 0 0 0 0 0 0 0 0 0 0 0 0 0 0 0 0 0 0 0 0
0 0 0 0 0 0 0 0 0 0 0 0 0 0 0 0 0 0 0 0 0 0 0 0 0 0 0 0 0 0 0 0 0 0 0 0 0 0 0 0 0 0 0
0 0 0 0 0 0 0 0 0 0 0 0 0 0 0 0 0 0 0 0 0 0 0 0 0 0 0 0 0 0 0 0 0 0 0 0 0 0 0 0 0 0 0
0 0 0 0 0 0 0 0 0 0 0 0 0 0 0 0 0 0 0 0 0 0 0 0 0 0 0 0 0 0 0 0 0 0 0 0 0 0 0 0 0 0 0
0 0 0 0 0 0 0 0 0 0 0 0 0 0 0 0 0 0 0 0 0 0 0 0 0 0 0 0 0 0 0 0 0 0 0 0 0 0 0 0 0 0 0
0 0 0 0 0 0 0 0 0 0 0 0 0 0 0 0 0 0 0 0 0 0 0 0 0 0 0 0 0 0 0 0 0 0 0 0 0 0 0 0 0 0 0
0 0 0 0 0 0 -0 0 0 0 -0 0 0 0 0 0 0 0 -0 0 0 0 0 0 0 0 0 0 0 0 0 0 0 0 0 0 0 0 0 0 0 0 0
0 0 0 0 0 0 0 -0 -0 0 0 0 0 0 0 0 0 0 0 -0 0 0 0 0 0 0 0 0 0 0 0 0 0 0 0 0 0 0 0 0 0 0 0
0 0 0 0 0 0 0 -0 0 0 0 0 0 0 0 0 0 0 0 0 0 0 0 0 0 0 0 0 0 0 0 0 0 0 0 0 0 0 0 0 0 0 0
0 0 0 -0 -0 -0 -0 -0 -0 -0 0 0 0 0 0 0 -0 -0 0 0 -0 -0 0 0 0 0 0 0 0 0 0 0 0 0 0 0 0 0 0 0 0 0 0
0 0 0 -0 -0 -0 0 -0 -0 -0 -0 -0 -0 -0 0 0 0 0 0 0 0 0 0 0 0 0 0 0 0 0 0 0 0 0 0 0 0 0 0 0 0 0 0
0 0 0 0 0 0 0 0 0 0 -0 -0 -0 -0 -0 -0 0 0 0 0 0 0 0 0 0 0 0 0 0 0 0 0 0 0 0 0 0 0 0 0 0 0 0
0 0 0 0 0 0 0 0 0 0 0 0 -0 -0 -0 -0 -0 0 0 0 0 0 0 0 0 0 0 0 0 0 0 0 0 0 0 0 0 0 0 0 0 0 0
0 0 0 0 0 0 0 0 0 0 0 0 0 -0 -0 0 0 0 0 0 0 0 0 0 0 0 0 0 0 0 0 0 0 0 0 0 0 0 0 0 0 0 0
0 0 0 0 0 0 0 0 0 0 0 0 0 0 0 0 0 0 0 0 0 0 0 0 0 0 0 0 0 0 0 0 0 0 0 0 0 0 0 0 0 0 0
0 0 0 0 0 0 0 0 0 0 0 0 0 0 0 0 0 0 0 0 0 0 0 0 0 0 0 0 0 0 0 0 0 0 0 0 0 0 0 0 0 0 0
0 0 0 0 0 0 0 0 0 0 0 0 0 0 0 0 0 0 0 0 0 0 0 0 0 0 0 0 0 0 0 0 0 0 0 0 0 0 0 0 0 0 0
0 0 0 0 0 0 0 0 0 0 0 0 0 0 0 0 0 0 0 0 0 0 0 0 0 0 0 0 0 0 0 0 0 0 0 0 0 0 0 0 0 0 0
0 0 0 0 0 0 0 0 0 0 0 0 0 0 0 0 0 0 0 0 0 0 0 0 0 0 0 0 0 0 0 0 0 0 0 0 0 0 0 0 0 0 0
0 0 0 0 0 0 0 0 0 0 0 0 0 0 0 0 0 0 0 0 0 0 0 0 0 0 0 0 0 0 0 0 0 0 0 0 0 0 0 0 0 0 0
Wind_Speed_500mb
18 20 20 23 28 32 36 39 43 47 48 57 67 72 71 74 73 74 77 78 82 82 81 92 107 91 97 95 97 93 96 91 88 85 75 78 72 74 73 72 66 62 58
25 23 22 23 24 29 37 42 44 47 48 48 50 63 69 74 78 79 82 79 84 85 82 85 85 87 94 96 95 97 98 97 91 84 77 84 88 89 77 75 72 68 62
16 22 27 29 30 31 33 34 40 48 49 50 51 52 59 67 76 81 83 88 88 87 86 86 86 88 94 91 97 104 104 101 96 94 87 95 95 97 84 85 75 69 64
26 24 24 29 32 36 38 41 43 42 48 50 51 55 56 60 69 79 83 86 91 88 84 84 83 79 87 93 105 115 114 104 106 104 100 100 103 107 95 88 82 72 67
30 34 38 38 39 41 43 45 45 48 50 49 55 55 58 63 65 70 80 86 83 90 91 89 85 79 87 87 91 119 121 123 103 105 104 107 114 96 92 90 80 79 71
32 34 38 41 42 47 49 50 50 53 53 58 53 58 60 61 65 62 66 80 86 87 87 91 91 92 97 100 102 111 125 106 109 111 104 108 121 101 92 99 87 81 67
31 34 37 40 42 45 50 53 57 58 59 59 60 61 62 62 60 64 59 67 82 91 91 90 95 100 96 93 87 93 104 137 138 126 98 105 109 87 97 83 93 85 85
37 39 42 43 44 45 48 52 56 60 63 66 67 64 68 67 64 65 66 69 75 83 88 92 94 96 95 92 93 93 104 111 127 120 103 98 87 78 92 82 80 84 76
30 32 37 42 46 49 52 54 55 61 63 66 69 72 72 72 67 64 68 71 84 84 82 84 93 90 95 90 88 85 73 86 94 107 101 72 83 89 89 69 83 85 78
35 36 39 44 48 50 53 55 58 60 63 66 69 70 71 74 68 61 57 65 74 85 85 84 84 86 87 86 81 75 83 64 73 68 79 69 61 60 62 60 67 85 83
37 39 41 46 51 51 52 53 58 62 66 67 68 68 72 72 70 63 53 54 65 75 84 86 84 78 80 87 77 82 81 81 83 67 50 48 67 65 64 68 72 68 77
41 43 44 46 50 55 59 58 58 61 65 70 75 77 73 72 75 72 54 48 53 67 79 82 83 71 74 71 84 79 81 62 52 65 66 80 78 69 69 72 68 65 65
47 50 52 52 53 56 62 65 66 64 66 71 74 80 85 82 76 80 75 53 51 59 67 76 75 72 69 77 79 67 73 56 62 88 90 79 69 72 75 76 74 71 66
56 57 58 60 63 64 66 68 70 69 71 71 72 78 83 83 81 79 83 83 62 55 59 61 70 66 70 68 73 75 63 60 74 87 82 75 75 79 81 80 77 73 67
60 64 67 69 70 73 73 74 76 76 71 73 70 78 79 82 74 70 71 77 77 68 64 62 63 64 67 66 70 73 73 75 84 88 78 78 79 85 83 77 73 71 66
65 67 71 75 77 78 82 88 82 84 79 78 81 71 73 75 71 66 66 66 66 64 65 68 65 62 62 69 82 83 85 89 90 85 81 81 84 90 85 78 72 68 67
65 67 70 72 76 78 81 87 99 98 93 88 81 77 77 83 79 67 60 63 61 62 65 67 68 68 64 69 80 89 95 96 83 81 79 86 90 93 89 83 80 75 69
65 67 70 71 74 77 78 82 86 97 107 109 98 95 91 87 83 79 64 58 67 65 65 65 73 71 66 69 82 89 94 89 84 87 83 91 95 94 94 90 86 82 74
69 71 72 75 76 79 82 84 86 89 100 111 113 105 97 92 89 84 74 61 65 68 69 70 70 77 70 71 75 86 90 90 88 82 83 91 101 101 100 92 86 79 74
73 74 76 80 83 84 87 90 91 96 102 108 113 113 108 101 99 93 81 73 71 75 67 69 74 78 82 72 74 80 88 90 92 91 94 100 105 104 102 92 87 83 72
79 80 80 82 85 87 89 91 94 98 103 109 113 110 92 82 95 94 89 75 78 77 76 72 70 76 80 87 78 84 91 95 97 98 101 109 111 106 95 83 81 77 73
77 80 81 84 88 91 92 94 96 99 103 108 114 113 99 95 97 95 90 80 81 84 82 77 75 76 79 84 87 88 93 98 100 104 103 111 109 104 94 88 83 82 72
73 77 81 85 89 94 98 98 98 99 102 104 106 110 107 100 97 93 88 84 79 85 86 79 77 75 80 78 86 88 86 96 100 107 108 114 112 106 96 91 89 82 70
74 77 81 86 91 94 97 100 100 99 98 100 100 101 100 99 96 92 88 84 74 79 88 82 81 75 74 79 79 86 84 87 94 98 103 111 111 102 95 90 87 77 68
75 79 82 86 90 93 95 95 95 94 94 93 98 98 98 95 95 90 85 77 74 75 88 80 78 75 71 76 71 78 81 82 89 90 92 100 109 101 93 91 84 74 64
74 76 79 83 89 92 93 94 95 94 93 95 95 95 94 92 94 89 80 73 75 73 87 76 71 67 65 64 66 78 75 77 79 86 84 94 107 101 95 92 83 73 60
Wind_Direction_500mb
322 324 312 302 297 293 290 291 293 294 298 293 286 282 281 283 283 281 278 276 273 268 267 262 265 273 270 270 267 262 256 253 249 249 252 252 252 252 244 240 234 228 229
352 349 348 338 320 303 296 292 288 289 291 293 292 285 280 279 278 277 276 277 275 272 270 266 264 264 267 268 261 263 258 254 249 242 250 251 249 249 239 235 229 223 227
335 318 330 336 338 337 328 317 306 297 292 290 289 285 281 277 277 277 275 276 275 277 275 272 265 267 262 261 267 260 254 251 247 244 244 250 245 240 227 225 223 218 217
340 338 331 321 322 324 329 332 327 316 305 296 291 287 283 277 271 272 273 274 274 274 277 277 273 270 271 268 270 258 250 249 248 245 239 234 238 239 225 223 215 216 214
334 335 335 338 337 332 325 322 321 326 322 310 300 292 287 282 279 273 272 272 269 274 276 273 268 268 273 270 273 260 253 246 241 233 231 236 233 228 215 215 213 213 210
326 329 329 330 332 329 329 332 327 322 322 322 317 302 294 291 286 279 274 273 273 268 268 272 274 273 277 274 277 277 268 248 240 225 231 234 230 226 220 214 213 202 202
323 325 326 327 329 328 331 332 331 330 328 323 324 321 309 297 294 287 274 270 270 266 267 266 270 273 273 274 274 280 276 265 256 237 234 244 231 231 231 214 209 214 210
326 331 330 329 331 331 328 328 329 332 331 330 326 324 321 315 304 294 287 270 263 265 264 267 269 273 276 271 277 282 280 270 253 242 245 250 238 244 222 215 214 208 207
334 339 339 338 340 340 340 339 335 329 329 332 332 328 324 323 319 306 294 286 274 265 263 266 266 273 274 275 280 282 287 277 269 242 242 255 251 239 212 207 207 203 197
334 336 336 335 337 336 335 335 336 335 334 329 328 330 328 325 326 315 305 296 283 277 272 270 267 267 276 275 273 278 275 287 264 258 256 236 232 226 205 211 211 202 202
331 332 333 333 332 332 331 332 331 331 331 333 332 329 330 330 330 330 315 304 297 289 278 275 278 268 271 271 273 271 277 273 256 252 209 228 209 203 202 204 207 212 207
326 328 328 329 329 328 328 329 330 330 331 331 331 331 333 332 330 332 323 308 300 294 287 280 281 281 277 274 275 261 269 266 256 233 210 206 202 204 199 199 202 202 206
322 322 322 323 324 325 324 325 326 328 329 330 330 330 330 332 332 331 331 313 301 295 291 286 278 277 277 277 270 260 264 243 246 215 207 197 205 205 199 196 194 194 201
318 319 318 317 318 319 320 321 320 322 323 323 324 326 326 326 331 331 329 328 314 301 299 291 282 280 282 275 260 254 243 236 235 214 204 206 199 194 193 195 194 194 201
316 317 316 315 315 314 314 315 314 314 315 314 316 318 317 319 327 324 322 322 321 311 310 303 295 288 288 268 248 244 233 222 217 215 212 201 196 196 193 195 197 197 200
316 316 317 316 315 315 314 310 309 310 309 307 308 309 310 308 314 316 311 312 316 313 306 303 299 292 284 270 251 235 225 216 214 218 211 205 202 198 195 194 198 200 201
319 318 317 317 317 318 317 316 314 308 310 310 310 310 308 308 310 310 306 302 300 301 296 295 290 287 283 272 259 245 229 222 217 216 210 207 202 200 197 196 196 197 195
317 318 318 318 317 316 316 315 314 313 312 311 312 312 312 311 308 305 306 297 291 289 292 291 287 282 279 274 261 247 235 224 216 216 214 211 205 204 199 199 197 196 193
313 314 315 315 316 317 316 315 314 313 310 308 309 309 312 311 307 303 301 297 291 286 287 287 285 280 276 271 267 257 242 235 229 219 217 215 209 205 203 200 197 195 194
312 314 316 315 316 317 317 317 315 312 310 308 308 310 312 311 305 303 298 291 287 287 283 280 281 281 275 269 264 257 248 242 231 225 221 215 211 207 203 200 197 194 192
312 313 314 315 315 315 314 314 312 311 309 307 305 307 309 304 300 296 293 287 283 276 282 281 277 276 275 269 261 258 252 248 240 233 225 216 210 206 202 198 196 194 190
310 313 314 313 313 313 314 313 311 309 308 307 306 305 306 303 300 295 289 281 278 276 276 280 276 273 271 270 265 260 257 251 245 236 228 218 211 204 199 192 195 191 187
312 312 313 314 315 315 314 312 310 308 307 305 305 305 305 303 300 295 287 280 273 274 273 278 277 271 270 269 268 263 262 258 253 243 230 218 209 200 192 190 192 186 183
313 314 315 315 315 314 312 310 308 306 304 303 302 300 299 300 299 294 288 280 267 272 272 276 277 272 270 268 268 264 260 256 250 244 236 222 205 195 185 188 188 183 178
315 316 315 314 314 314 312 309 305 303 301 299 299 297 298 299 296 293 291 280 270 274 270 274 276 272 268 266 268 265 262 258 254 245 232 225 204 188 183 187 182 177 173
316 315 315 316 317 316 312 308 304 301 299 299 297 295 298 297 293 291 291 287 272 276 266 275 272 270 268 267 266 261 260 257 254 246 233 212 191 183 182 182 176 171 177
Wind_Speed_850mb
18 20 20 23 28 32 36 39 43 47 48 57 67 72 71 74 73 74 77 78 82 82 81 92 107 91 97 95 97 93 96 91 88 85 75 78 72 74 73 72 66 62 58
25 23 22 23 24 29 37 42 44 47 48 48 50 63 69 74 78 79 82 79 84 85 82 85 85 87 94 96 95 97 98 97 91 84 77 84 88 89 77 75 72 68 62
16 22 27 29 30 31 33 34 40 48 49 50 51 52 59 67 76 81 83 88 88 87 86 86 86 88 94 91 97 104 104 101 96 94 87 95 95 97 84 85 75 69 64
26 24 24 29 32 36 38 41 43 42 48 50 51 55 56 60 69 79 83 86 91 88 84 84 83 79 87 93 105 115 114 104 106 104 100 100 103 107 95 88 82 72 67
30 34 38 38 39 41 43 45 45 48 50 49 55 55 58 63 65 70 80 86 83 90 91 89 85 79 87 87 91 119 121 123 103 105 104 107 114 96 92 90 80 79 71
32 34 38 41 42 47 49 50 50 53 53 58 53 58 60 61 65 62 66 80 86 87 87 91 91 92 97 100 102 111 125 106 109 111 104 108 121 101 92 99 87 81 67
31 34 37 40 42 45 50 53 57 58 59 59 60 61 62 62 60 64 59 67 82 91 91 90 95 100 96 93 87 93 104 137 138 126 98 105 109 87 97 83 93 85 85
37 39 42 43 44 45 48 52 56 60 63 66 67 64 68 67 64 65 66 69 75 83 88 92 94 96 95 92 93 93 104 111 127 120 103 98 87 78 92 82 80 84 76
30 32 37 42 46 49 52 54 55 61 63 66 69 72 72 72 67 64 68 71 84 84 82 84 93 90 95 90 88 85 73 86 94 107 101 72 83 89 89 69 83 85 78
35 36 39 44 48 50 53 55 58 60 63 66 69 70 71 74 68 61 57 65 74 85 85 84 84 86 87 86 81 75 83 64 73 68 79 69 61 60 62 60 67 85 83
37 39 41 46 51 51 52 53 58 62 66 67 68 68 72 72 70 63 53 54 65 75 84 86 84 78 80 87 77 82 81 81 83 67 50 48 67 65 64 68 72 68 77
41 43 44 46 50 55 59 58 58 61 65 70 75 77 73 72 75 72 54 48 53 67 79 82 83 71 74 71 84 79 81 62 52 65 66 80 78 69 69 72 68 65 65
47 50 52 52 53 56 62 65 66 64 66 71 74 80 85 82 76 80 75 53 51 59 67 76 75 72 69 77 79 67 73 56 62 88 90 79 69 72 75 76 74 71 66
56 57 58 60 63 64 66 68 70 69 71 71 72 78 83 83 81 79 83 83 62 55 59 61 70 66 70 68 73 75 63 60 74 87 82 75 75 79 81 80 77 73 67
60 64 67 69 70 73 73 74 76 76 71 73 70 78 79 82 74 70 71 77 77 68 64 62 63 64 67 66 70 73 73 75 84 88 78 78 79 85 83 77 73 71 66
65 67 71 75 77 78 82 88 82 84 79 78 81 71 73 75 71 66 66 66 66 64 65 68 65 62 62 69 82 83 85 89 90 85 81 81 84 90 85 78 72 68 67
65 67 70 72 76 78 81 87 99 98 93 88 81 77 77 83 79 67 60 63 61 62 65 67 68 68 64 69 80 89 95 96 83 81 79 86 90 93 89 83 80 75 69
65 67 70 71 74 77 78 82 86 97 107 109 98 95 91 87 83 79 64 58 67 65 65 65 73 71 66 69 82 89 94 89 84 87 83 91 95 94 94 90 86 82 74
69 71 72 75 76 79 82 84 86 89 100 111 113 105 97 92 89 84 74 61 65 68 69 70 70 77 70 71 75 86 90 90 88 82 83 91 101 101 100 92 86 79 74
73 74 76 80 83 84 87 90 91 96 102 108 113 113 108 101 99 93 81 73 71 75 67 69 74 78 82 72 74 80 88 90 92 91 94 100 105 104 102 92 87 83 72
79 80 80 82 85 87 89 91 94 98 103 109 113 110 92 82 95 94 89 75 78 77 76 72 70 76 80 87 78 84 91 95 97 98 101 109 111 106 95 83 81 77 73
77 80 81 84 88 91 92 94 96 99 103 108 114 113 99 95 97 95 90 80 81 84 82 77 75 76 79 84 87 88 93 98 100 104 103 111 109 104 94 88 83 82 72
73 77 81 85 89 94 98 98 98 99 102 104 106 110 107 100 97 93 88 84 79 85 86 79 77 75 80 78 86 88 86 96 100 107 108 114 112 106 96 91 89 82 70
74 77 81 86 91 94 97 100 100 99 98 100 100 101 100 99 96 92 88 84 74 79 88 82 81 75 74 79 79 86 84 87 94 98 103 111 111 102 95 90 87 77 68
75 79 82 86 90 93 95 95 95 94 94 93 98 98 98 95 95 90 85 77 74 75 88 80 78 75 71 76 71 78 81 82 89 90 92 100 109 101 93 91 84 74 64
74 76 79 83 89 92 93 94 95 94 93 95 95 95 94 92 94 89 80 73 75 73 87 76 71 67 65 64 66 78 75 77 79 86 84 94 107 101 95 92 83 73 60
Wind_Direction_850mb
322 324 312 302 297 293 290 291 293 294 298 293 286 282 281 283 283 281 278 276 273 268 267 262 265 273 270 270 267 262 256 253 249 249 252 252 252 252 244 240 234 228 229
352 349 348 338 320 303 296 292 288 289 291 293 292 285 280 279 278 277 276 277 275 272 270 266 264 264 267 268 261 263 258 254 249 242 250 251 249 249 239 235 229 223 227
335 318 330 336 338 337 328 317 306 297 292 290 289 285 281 277 277 277 275 276 275 277 275 272 265 267 262 261 267 260 254 251 247 244 244 250 245 240 227 225 223 218 217
340 338 331 321 322 324 329 332 327 316 305 296 291 287 283 277 271 272 273 274 274 274 277 277 273 270 271 268 270 258 250 249 248 245 239 234 238 239 225 223 215 216 214
334 335 335 338 337 332 325 322 321 326 322 310 300 292 287 282 279 273 272 272 269 274 276 273 268 268 273 270 273 260 253 246 241 233 231 236 233 228 215 215 213 213 210
326 329 329 330 332 329 329 332 327 322 322 322 317 302 294 291 286 279 274 273 273 268 268 272 274 273 277 274 277 277 268 248 240 225 231 234 230 226 220 214 213 202 202
323 325 326 327 329 328 331 332 331 330 328 323 324 321 309 297 294 287 274 270 270 266 267 266 270 273 273 274 274 280 276 265 256 237 234 244 231 231 231 214 209 214 210
326 331 330 329 331 331 328 328 329 332 331 330 326 324 321 315 304 294 287 270 263 265 264 267 269 273 276 271 277 282 280 270 253 242 245 250 238 244 222 215 214 208 207
334 339 339 338 340 340 340 339 335 329 329 332 332 328 324 323 319 306 294 286 274 265 263 266 266 273 274 275 280 282 287 277 269 242 242 255 251 239 212 207 207 203 197
334 336 336 335 337 336 335 335 336 335 334 329 328 330 328 325 326 315 305 296 283 277 272 270 267 267 276 275 273 278 275 287 264 258 256 236 232 226 205 211 211 202 202
331 332 333 333 332 332 331 332 331 331 331 333 332 329 330 330 330 330 315 304 297 289 278 275 278 268 271 271 273 271 277 273 256 252 209 228 209 203 202 204 207 212 207
326 328 328 329 329 328 328 329 330 330 331 331 331 331 333 332 330 332 323 308 300 294 287 280 281 281 277 274 275 261 269 266 256 233 210 206 202 204 199 199 202 202 206
322 322 322 323 324 325 324 325 326 328 329 330 330 330 330 332 332 331 331 313 301 295 291 286 278 277 277 277 270 260 264 243 246 215 207 197 205 205 199 196 194 194 201
318 319 318 317 318 319 320 321 320 322 323 323 324 326 326 326 331 331 329 328 314 301 299 291 282 280 282 275 260 254 243 236 235 214 204 206 199 194 193 195 194 194 201
316 317 316 315 315 314 314 315 314 314 315 314 316 318 317 319 327 324 322 322 321 311 310 303 295 288 288 268 248 244 233 222 217 215 212 201 196 196 193 195 197 197 200
316 316 317 316 315 315 314 310 309 310 309 307 308 309 310 308 314 316 311 312 316 313 306 303 299 292 284 270 251 235 225 216 214 218 211 205 202 198 195 194 198 200 201
319 318 317 317 317 318 317 316 314 308 310 310 310 310 308 308 310 310 306 302 300 301 296 295 290 287 283 272 259 245 229 222 217 216 210 207 202 200 197 196 196 197 195
317 318 318 318 317 316 316 315 314 313 312 311 312 312 312 311 308 305 306 297 291 289 292 291 287 282 279 274 261 247 235 224 216 216 214 211 205 204 199 199 197 196 193
313 314 315 315 316 317 316 315 314 313 310 308 309 309 312 311 307 303 301 297 291 286 287 287 285 280 276 271 267 257 242 235 229 219 217 215 209 205 203 200 197 195 194
312 314 316 315 316 317 317 317 315 312 310 308 308 310 312 311 305 303 298 291 287 287 283 280 281 281 275 269 264 257 248 242 231 225 221 215 211 207 203 200 197 194 192
312 313 314 315 315 315 314 314 312 311 309 307 305 307 309 304 300 296 293 287 283 276 282 281 277 276 275 269 261 258 252 248 240 233 225 216 210 206 202 198 196 194 190
310 313 314 313 313 313 314 313 311 309 308 307 306 305 306 303 300 295 289 281 278 276 276 280 276 273 271 270 265 260 257 251 245 236 228 218 211 204 199 192 195 191 187
312 312 313 314 315 315 314 312 310 308 307 305 305 305 305 303 300 295 287 280 273 274 273 278 277 271 270 269 268 263 262 258 253 243 230 218 209 200 192 190 192 186 183
313 314 315 315 315 314 312 310 308 306 304 303 302 300 299 300 299 294 288 280 267 272 272 276 277 272 270 268 268 264 260 256 250 244 236 222 205 195 185 188 188 183 178
315 316 315 314 314 314 312 309 305 303 301 299 299 297 298 299 296 293 291 280 270 274 270 274 276 272 268 266 268 265 262 258 254 245 232 225 204 188 183 187 182 177 173
316 315 315 316 317 316 312 308 304 301 299 299 297 295 298 297 293 291 291 287 272 276 266 275 272 270 268 267 266 261 260 257 254 246 233 212 191 183 182 182 176 171 177